Find Kosmos-2461

NORAD ID: 36401 Int'l Des: 2010-007 Owner: KVR/IACG Country: RU Constellation: GLONASS operational
MEOCIRCULAR

Live Position

Loading 3D Globe...

About Kosmos-2461

Description loading...

Upcoming Passes

Passes for default location (London). Set your location on the main map for personalized predictions.

Altitude History

Loading altitude history...

Two-Line Element Set

1 36401U 10007B 26102.15739274 -.00000004 00000-0 00000+0 0 9995
2 36401 65.4728 316.7749 0021489 1.7616 177.3685 2.13107220125418
Epoch: Apr 12, 2026 • Age: 104 hours

Current Status

Altitude 19155.6 km
Velocity 3.95 km/s
Sub-Earth Point -65.49°S, 158.11°W
Launch Date Mar 1, 2010
Age 16.1 years
Type other

Technical Details

Classification Payload
Mass 1450.00 kg
Dry Mass 1200.00 kg
Total Mass 1450.00 kg
Length 4.00 m
Diameter 1.50 m
Span 7.80 m
Shape Cyl + Ant + 2 Pan
Manufacturer RESH
Bus Type Uragan
Phase Status In Orbit
Owner/State KVR/IACG/RU

Most Searched